�������l�o���
Date,Time,MP-1(��Sv/h),MP-2(��Sv/h),MP-3(��Sv/h),MP-4(��Sv/h),MP-5(��Sv/h),MP-6(��Sv/h),MP-7(��Sv/h),MP-8(��Sv/h),����,����(m/s),���J
2019/02/03,00:00,0.781,1.163,0.808,1.494,1.070,0.446,0.794,0.751,���k��,1.4,��
2019/02/03,00:10,0.782,1.161,0.809,1.496,1.068,0.446,0.793,0.751,���k��,1.2,��
2019/02/03,00:20,0.782,1.161,0.809,1.497,1.069,0.445,0.792,0.752,�쐼,0.6,��
2019/02/03,00:30,0.781,1.163,0.811,1.496,1.069,0.446,0.794,0.751,��쓌,1.1,��
2019/02/03,00:40,0.782,1.162,0.809,1.499,1.069,0.446,0.794,0.751,��쓌,0.8,��
2019/02/03,00:50,0.782,1.160,0.811,1.495,1.069,0.445,0.793,0.751,-,CALM,��
2019/02/03,01:00,0.781,1.161,0.811,1.495,1.070,0.446,0.794,0.751,��쐼,1.5,��
2019/02/03,01:10,0.781,1.159,0.811,1.496,1.068,0.446,0.792,0.751,���쐼,0.9,��
2019/02/03,01:20,0.781,1.160,0.810,1.497,1.070,0.447,0.793,0.754,��쓌,1.2,��
2019/02/03,01:30,0.780,1.162,0.808,1.494,1.066,0.445,0.793,0.750,�쓌,0.6,��
2019/02/03,01:40,0.781,1.160,0.811,1.494,1.067,0.446,0.793,0.751,���쓌,1.2,��
2019/02/03,01:50,0.782,1.160,0.808,1.497,1.068,0.446,0.793,0.751,���쐼,0.9,��
2019/02/03,02:00,0.781,1.162,0.808,1.496,1.068,0.446,0.793,0.752,��,1.7,��
2019/02/03,02:10,0.781,1.162,0.807,1.494,1.069,0.447,0.794,0.751,�쐼,0.8,��
2019/02/03,02:20,0.780,1.163,0.809,1.496,1.070,0.445,0.793,0.752,���k��,1.5,��
2019/02/03,02:30,0.782,1.161,0.809,1.495,1.067,0.446,0.792,0.751,���k��,3.2,��
2019/02/03,02:40,0.780,1.161,0.809,1.497,1.069,0.447,0.791,0.752,��,6.0,��
2019/02/03,02:50,0.780,1.162,0.811,1.495,1.070,0.446,0.793,0.751,��,5.6,��
2019/02/03,03:00,0.780,1.162,0.811,1.495,1.068,0.446,0.794,0.752,�쐼,4.4,��
2019/02/03,03:10,0.781,1.162,0.809,1.496,1.067,0.446,0.793,0.751,��,3.8,��
2019/02/03,03:20,0.781,1.159,0.810,1.497,1.069,0.446,0.794,0.753,���k��,2.0,��
2019/02/03,03:30,0.781,1.159,0.809,1.496,1.068,0.446,0.794,0.753,�k��,1.8,��
2019/02/03,03:40,0.780,1.159,0.809,1.497,1.066,0.448,0.794,0.753,-,CALM,��
2019/02/03,03:50,0.781,1.161,0.809,1.496,1.068,0.446,0.794,0.753,���쐼,2.6,��
2019/02/03,04:00,0.782,1.161,0.809,1.496,1.067,0.445,0.796,0.752,��,5.5,��
2019/02/03,04:10,0.780,1.160,0.810,1.496,1.068,0.448,0.795,0.754,��,6.4,��
2019/02/03,04:20,0.781,1.157,0.808,1.494,1.069,0.447,0.794,0.751,��,5.2,��
2019/02/03,04:30,0.781,1.162,0.808,1.496,1.067,0.446,0.795,0.752,���k��,5.3,��
2019/02/03,04:40,0.780,1.162,0.807,1.496,1.066,0.446,0.795,0.752,���k��,6.0,��
2019/02/03,04:50,0.780,1.159,0.811,1.497,1.068,0.448,0.795,0.753,��,5.4,��
2019/02/03,05:00,0.781,1.159,0.808,1.497,1.066,0.446,0.796,0.753,��,7.0,��
2019/02/03,05:10,0.779,1.159,0.810,1.497,1.066,0.447,0.795,0.751,���k��,6.5,��
2019/02/03,05:20,0.782,1.161,0.809,1.496,1.066,0.447,0.794,0.751,���k��,6.4,��
2019/02/03,05:30,0.781,1.160,0.811,1.496,1.066,0.445,0.796,0.751,��,7.2,��
2019/02/03,05:40,0.779,1.158,0.810,1.495,1.066,0.448,0.795,0.752,���k��,7.4,��
2019/02/03,05:50,0.780,1.161,0.811,1.494,1.067,0.447,0.794,0.753,���k��,8.9,��
2019/02/03,06:00,0.779,1.160,0.811,1.496,1.065,0.445,0.793,0.753,���k��,9.1,��
2019/02/03,06:10,0.781,1.161,0.810,1.497,1.066,0.446,0.794,0.751,���k��,9.8,��
2019/02/03,06:20,0.781,1.159,0.809,1.496,1.066,0.446,0.795,0.752,���k��,9.7,��
2019/02/03,06:30,0.780,1.161,0.809,1.497,1.065,0.447,0.794,0.752,���k��,9.4,��
2019/02/03,06:40,0.782,1.161,0.809,1.497,1.067,0.447,0.796,0.754,��,7.8,��
2019/02/03,06:50,0.780,1.159,0.810,1.496,1.068,0.446,0.793,0.753,��,7.6,��
2019/02/03,07:00,0.780,1.161,0.812,1.496,1.066,0.446,0.795,0.752,��,7.4,��
2019/02/03,07:10,0.781,1.159,0.810,1.497,1.068,0.447,0.793,0.752,��,7.5,��
2019/02/03,07:20,0.780,1.160,0.810,1.498,1.067,0.445,0.795,0.750,��,7.8,��
2019/02/03,07:30,0.781,1.159,0.809,1.494,1.064,0.447,0.794,0.753,��,6.9,��
2019/02/03,07:40,0.781,1.161,0.808,1.496,1.067,0.445,0.793,0.754,��,6.1,��
2019/02/03,07:50,0.781,1.159,0.809,1.497,1.065,0.445,0.793,0.752,��,6.0,��
2019/02/03,08:00,0.781,1.159,0.811,1.496,1.066,0.446,0.795,0.751,��,5.4,��
2019/02/03,08:10,0.784,1.161,0.811,1.497,1.067,0.446,0.793,0.753,��,5.2,��
2019/02/03,08:20,0.783,1.161,0.811,1.496,1.066,0.446,0.795,0.753,���쐼,4.7,��
2019/02/03,08:30,0.781,1.160,0.810,1.499,1.063,0.447,0.794,0.753,��,5.4,��
2019/02/03,08:40,0.783,1.161,0.809,1.496,1.068,0.447,0.796,0.753,��,4.8,��
2019/02/03,08:50,0.784,1.161,0.810,1.499,1.067,0.447,0.798,0.753,��,4.8,��
2019/02/03,09:00,0.782,1.161,0.811,1.498,1.067,0.448,0.799,0.752,��,4.3,��
2019/02/03,09:10,0.783,1.162,0.810,1.497,1.067,0.447,0.796,0.754,��,4.3,��
2019/02/03,09:20,0.783,1.161,0.811,1.500,1.068,0.448,0.795,0.753,��,3.6,��
2019/02/03,09:30,0.785,1.163,0.811,1.498,1.069,0.448,0.796,0.754,��,3.4,��
2019/02/03,09:40,0.781,1.161,0.812,1.500,1.069,0.447,0.794,0.755,���쐼,2.0,��
2019/02/03,09:50,0.784,1.162,0.812,1.499,1.069,0.448,0.795,0.754,�쐼,4.0,��
2019/02/03,10:00,0.783,1.163,0.814,1.500,1.070,0.449,0.794,0.752,��쐼,4.3,��
2019/02/03,10:10,0.783,1.163,0.814,1.497,1.068,0.448,0.794,0.754,��쐼,3.8,��
2019/02/03,10:20,0.786,1.162,0.813,1.498,1.070,0.449,0.794,0.755,��,4.3,��
2019/02/03,10:30,0.784,1.161,0.812,1.502,1.073,0.448,0.794,0.753,��,4.4,��
2019/02/03,10:40,0.784,1.158,0.816,1.499,1.073,0.449,0.794,0.756,��쓌,6.3,��
2019/02/03,10:50,0.784,1.161,0.813,1.501,1.073,0.450,0.797,0.753,��쓌,5.9,��
2019/02/03,11:00,0.785,1.160,0.814,1.501,1.072,0.448,0.795,0.753,��쓌,5.5,��
2019/02/03,11:10,0.785,1.160,0.813,1.502,1.071,0.450,0.794,0.754,��쓌,6.0,��
2019/02/03,11:20,0.784,1.161,0.812,1.498,1.072,0.448,0.793,0.754,��쓌,5.9,��
2019/02/03,11:30,0.785,1.160,0.813,1.500,1.072,0.449,0.796,0.754,��쓌,5.5,��
2019/02/03,11:40,0.785,1.159,0.813,1.500,1.073,0.449,0.795,0.754,��쓌,5.7,��
2019/02/03,11:50,0.784,1.163,0.815,1.502,1.070,0.451,0.795,0.755,��쓌,5.9,��
2019/02/03,12:00,0.787,1.162,0.813,1.500,1.073,0.449,0.796,0.754,��쓌,6.0,��
2019/02/03,12:10,0.784,1.165,0.816,1.496,1.070,0.450,0.795,0.755,��쓌,6.5,��
2019/02/03,12:20,0.784,1.162,0.814,1.500,1.067,0.452,0.795,0.753,��쓌,6.8,��
2019/02/03,12:30,0.785,1.164,0.814,1.500,1.069,0.450,0.797,0.754,��쓌,7.7,��
2019/02/03,12:40,0.782,1.165,0.814,1.501,1.071,0.450,0.795,0.755,��쓌,7.1,��
2019/02/03,12:50,0.784,1.165,0.812,1.500,1.069,0.450,0.797,0.754,��쓌,6.9,��
2019/02/03,13:00,0.787,1.164,0.816,1.498,1.071,0.451,0.795,0.754,��쓌,6.6,��
2019/02/03,13:10,0.786,1.165,0.814,1.500,1.071,0.452,0.794,0.753,��쓌,9.3,��
2019/02/03,13:20,0.790,1.165,0.814,1.502,1.071,0.451,0.795,0.752,��쓌,9.5,��
2019/02/03,13:30,0.786,1.166,0.814,1.501,1.072,0.453,0.796,0.750,��쓌,9.2,��
2019/02/03,13:40,0.786,1.168,0.814,1.503,1.072,0.451,0.796,0.751,��쓌,10.5,��
2019/02/03,13:50,0.786,1.168,0.814,1.502,1.072,0.452,0.795,0.750,��쓌,9.7,��
2019/02/03,14:00,0.786,1.165,0.812,1.501,1.072,0.452,0.796,0.751,��쓌,10.3,��
2019/02/03,14:10,0.785,1.166,0.814,1.501,1.072,0.449,0.794,0.751,��쓌,9.1,��
2019/02/03,14:20,0.785,1.164,0.814,1.501,1.071,0.451,0.794,0.750,��쓌,10.5,��
2019/02/03,14:30,0.785,1.164,0.813,1.501,1.072,0.451,0.795,0.750,��쓌,9.6,��
2019/02/03,14:40,0.786,1.166,0.815,1.500,1.072,0.452,0.796,0.752,��쓌,10.5,��
2019/02/03,14:50,0.787,1.167,0.813,1.498,1.072,0.451,0.796,0.751,��쓌,9.0,��
2019/02/03,15:00,0.786,1.167,0.814,1.501,1.073,0.451,0.796,0.751,��쓌,8.3,��
2019/02/03,15:10,0.787,1.167,0.815,1.500,1.072,0.452,0.795,0.751,��쓌,9.6,��
2019/02/03,15:20,0.785,1.168,0.815,1.502,1.073,0.453,0.795,0.753,��쓌,9.7,��
2019/02/03,15:30,0.786,1.170,0.812,1.502,1.073,0.452,0.796,0.753,��쓌,10.2,��
2019/02/03,15:40,0.786,1.168,0.815,1.501,1.074,0.453,0.797,0.754,��쓌,8.5,��
2019/02/03,15:50,0.787,1.166,0.816,1.499,1.074,0.451,0.797,0.754,��쓌,7.8,��
2019/02/03,16:00,0.786,1.169,0.813,1.499,1.070,0.453,0.795,0.754,��쓌,7.6,��
2019/02/03,16:10,0.787,1.169,0.814,1.501,1.073,0.453,0.796,0.753,��,5.6,��
2019/02/03,16:20,0.786,1.170,0.815,1.499,1.077,0.452,0.796,0.756,��,6.3,��
2019/02/03,16:30,0.786,1.167,0.814,1.501,1.077,0.453,0.796,0.755,��쓌,7.1,��
2019/02/03,16:40,0.787,1.170,0.814,1.501,1.075,0.452,0.796,0.754,��,6.7,��
2019/02/03,16:50,0.785,1.168,0.814,1.502,1.075,0.451,0.795,0.756,��,6.9,��
2019/02/03,17:00,0.786,1.167,0.816,1.501,1.075,0.451,0.797,0.754,��,6.5,��
2019/02/03,17:10,0.786,1.167,0.814,1.501,1.075,0.451,0.796,0.754,��쓌,7.0,��
2019/02/03,17:20,0.786,1.171,0.814,1.498,1.076,0.453,0.797,0.754,��쓌,7.6,��
2019/02/03,17:30,0.786,1.169,0.815,1.501,1.075,0.453,0.798,0.753,��쓌,8.1,��
2019/02/03,17:40,0.787,1.167,0.815,1.499,1.075,0.452,0.796,0.755,��쓌,7.4,��
2019/02/03,17:50,0.788,1.168,0.814,1.500,1.077,0.451,0.798,0.756,��쓌,8.2,��
2019/02/03,18:00,0.786,1.169,0.813,1.500,1.076,0.453,0.798,0.754,��쓌,9.6,�L
2019/02/03,18:10,0.786,1.168,0.814,1.501,1.076,0.452,0.798,0.754,��쓌,8.2,�L
2019/02/03,18:20,0.787,1.167,0.814,1.502,1.076,0.452,0.798,0.755,��쓌,7.6,��
2019/02/03,18:30,0.786,1.169,0.815,1.500,1.076,0.453,0.799,0.753,��쓌,7.5,�L
2019/02/03,18:40,0.788,1.169,0.815,1.504,1.076,0.454,0.797,0.755,��쓌,7.9,�L
2019/02/03,18:50,0.786,1.168,0.818,1.499,1.074,0.453,0.796,0.754,��쓌,8.6,�L
2019/02/03,19:00,0.786,1.164,0.817,1.499,1.073,0.453,0.796,0.754,��쓌,8.0,�L
2019/02/03,19:10,0.784,1.162,0.814,1.498,1.069,0.455,0.795,0.753,��,6.5,�L
2019/02/03,19:20,0.787,1.159,0.812,1.496,1.068,0.455,0.796,0.754,��,7.6,�L
2019/02/03,19:30,0.784,1.158,0.813,1.494,1.066,0.454,0.793,0.753,��,7.3,�L
2019/02/03,19:40,0.784,1.156,0.814,1.498,1.066,0.455,0.794,0.752,��,6.5,�L
2019/02/03,19:50,0.783,1.160,0.812,1.496,1.066,0.455,0.794,0.752,��,6.6,�L
2019/02/03,20:00,0.783,1.158,0.812,1.495,1.064,0.453,0.794,0.752,��,6.3,�L
2019/02/03,20:10,0.782,1.158,0.810,1.495,1.064,0.453,0.793,0.751,��,5.2,�L
2019/02/03,20:20,0.780,1.155,0.811,1.496,1.065,0.452,0.792,0.751,��,4.7,�L
2019/02/03,20:30,0.781,1.153,0.810,1.493,1.064,0.452,0.793,0.751,��쐼,5.0,�L
2019/02/03,20:40,0.780,1.155,0.811,1.494,1.060,0.452,0.795,0.751,��쐼,5.6,��
2019/02/03,20:50,0.782,1.154,0.810,1.494,1.064,0.451,0.793,0.751,��,5.5,�L
2019/02/03,21:00,0.780,1.154,0.808,1.491,1.062,0.449,0.795,0.750,��,5.3,�L
2019/02/03,21:10,0.780,1.152,0.809,1.493,1.062,0.451,0.794,0.752,��,5.1,�L
2019/02/03,21:20,0.780,1.152,0.810,1.492,1.063,0.450,0.793,0.751,��쐼,5.3,�L
2019/02/03,21:30,0.781,1.152,0.808,1.492,1.062,0.451,0.794,0.751,��쐼,5.4,�L
2019/02/03,21:40,0.779,1.152,0.810,1.491,1.061,0.449,0.794,0.751,��,5.6,�L
2019/02/03,21:50,0.782,1.150,0.811,1.489,1.060,0.450,0.794,0.750,��,5.4,�L
2019/02/03,22:00,0.779,1.152,0.807,1.493,1.063,0.450,0.796,0.750,��,5.3,�L
2019/02/03,22:10,0.780,1.152,0.808,1.493,1.058,0.450,0.794,0.751,��,5.2,��
2019/02/03,22:20,0.779,1.153,0.808,1.492,1.061,0.451,0.794,0.750,��,5.0,��
2019/02/03,22:30,0.779,1.153,0.809,1.492,1.061,0.450,0.794,0.751,��,5.1,��
2019/02/03,22:40,0.780,1.151,0.808,1.494,1.063,0.449,0.795,0.751,��,4.2,��
2019/02/03,22:50,0.781,1.151,0.808,1.491,1.059,0.450,0.794,0.751,��,3.5,��
2019/02/03,23:00,0.780,1.153,0.808,1.491,1.060,0.450,0.793,0.752,��,4.5,��
2019/02/03,23:10,0.779,1.152,0.810,1.490,1.060,0.450,0.793,0.751,��,5.8,��
2019/02/03,23:20,0.777,1.152,0.809,1.492,1.059,0.451,0.794,0.750,��,5.8,��
2019/02/03,23:30,0.780,1.150,0.809,1.492,1.060,0.448,0.795,0.751,��,5.2,��
2019/02/03,23:40,0.781,1.153,0.809,1.492,1.060,0.450,0.794,0.751,��,4.1,��
2019/02/03,23:50,0.779,1.152,0.809,1.491,1.060,0.450,0.796,0.750,��쐼,3.3,��
